Location: Bavegemberg
(50.9500°N, 3.8833°E)
Time: 21:18:05
(UTC+00:00)

FENGYUN 1C DEB - Pass Details

Date: 03 October 2024
Orbit: 755 x 948 km, 98.7° (Epoch: 11 November)

Event Time Altitude Azimuth Distance (km) Brightness Sun altitude
Exits shadow 22:08:47 14° 19° (NNE) 2,185 ? -40.2°
Drops below altitude 10° 22:09:55 10° 9° (N) 2,478 ? -40.3°
Sets 22:12:56 0° 353° (N) 3,456 ? -40.5°
